DW9246 Weather Reports


time (UTC)temp
F
wind
direction
speed
knots
gust
knots
rain 1hr
in
rain 24hr
in
rain mn
in
humidity
%
barometer
mb
20260504081010 63 120 2.6 6.1 0.00 0.02 0.00 77 1013.4
20260504045012 56 339 1.7 3.5 0.00 0.02 0.00 85 1013.3
20260504044012 56 338 1.7 3.5 0.00 0.02 0.00 85 1013.4
20260504043011 56 338 1.7 2.6 0.00 0.02 0.00 85 1013.6
20260504041011 57 338 0.9 1.7 0.00 0.02 0.00 85 1013.5
20260504040016 57 338 0.0 1.7 0.00 0.02 0.00 85 1013.5
20260504035012 57 338 0.9 2.6 0.00 0.02 0.00 85 1013.8
20260504034010 57 338 0.9 2.6 0.00 0.02 0.00 85 1013.8
20260504032012 56 338 1.7 3.5 0.00 0.02 0.00 85 1014.0
20260504031011 56 338 1.7 3.5 0.00 0.02 0.00 85 1014.1
20260504030011 56 338 1.7 3.5 0.00 0.02 0.00 85 1013.9
20260504025015 56 338 1.7 4.3 0.00 0.02 0.00 85 1014.0
20260504024010 56 339 1.7 4.3 0.00 0.02 0.00 85 1014.0
20260504023010 56 337 2.6 4.3 0.00 0.02 0.00 85 1013.9
20260504022011 56 334 3.5 6.1 0.00 0.02 0.00 85 1013.9
20260504021011 56 354 1.7 4.3 0.00 0.02 0.00 85 1013.9
20260504020013 56 355 1.7 3.5 0.00 0.02 0.00 84 1013.8
20260504015011 56 356 1.7 3.5 0.00 0.02 0.00 84 1013.8
20260504013011 56 356 1.7 2.6 0.00 0.02 0.00 85 1014.1
20260504012014 56 355 1.7 2.6 0.00 0.02 0.00 84 1014.4
20260504010012 56 355 1.7 2.6 0.00 0.02 0.00 84 1014.4
20260504005012 56 356 1.7 2.6 0.00 0.02 0.00 84 1014.4
20260504004011 56 354 2.6 3.5 0.00 0.02 0.00 84 1014.5
20260504003012 56 324 1.7 3.5 0.00 0.02 0.00 84 1014.7
20260504001011 56 30 2.6 3.5 0.00 0.02 0.00 83 1014.7
20260504000013 56 30 2.6 3.5 0.00 0.02 0.00 82 1014.6
20260503235013 57 31 1.7 3.5 0.00 0.02 0.02 82 1014.8
20260503234011 58 31 0.9 2.6 0.00 0.02 0.02 82 1014.7
20260503233011 58 30 1.7 3.5 0.00 0.02 0.02 82 1014.6
20260503230013 57 356 1.7 3.5 0.00 0.02 0.02 81 1015.0
20260503225010 57 44 1.7 3.5 0.00 0.02 0.02 81 1014.9
20260503224011 58 43 0.9 2.6 0.00 0.02 0.02 80 1014.9
20260503223011 58 44 0.0 1.7 0.00 0.02 0.02 80 1015.0
20260503222010 58 36 1.7 3.5 0.00 0.02 0.02 80 1015.1
20260503221011 58 38 1.7 4.3 0.00 0.02 0.02 80 1014.9
20260503220012 58 44 1.7 4.3 0.00 0.02 0.02 80 1015.0
20260503215011 58 26 0.9 2.6 0.00 0.02 0.02 79 1014.8
20260503214011 58 27 0.0 1.7 0.00 0.02 0.02 79 1014.7
20260503213016 58 27 1.7 2.6 0.00 0.02 0.02 79 1014.7
20260503212012 58 18 1.7 4.3 0.00 0.02 0.02 79 1014.7
20260503211010 58 8 1.7 3.5 0.00 0.02 0.02 78 1014.7
20260503210012 58 9 0.9 2.6 0.00 0.02 0.02 78 1014.9
20260503204011 58 37 2.6 6.1 0.00 0.02 0.02 78 1014.8
20260503203011 58 35 2.6 4.3 0.00 0.02 0.02 77 1015.0
20260503202012 58 52 1.7 4.3 0.00 0.02 0.02 77 1015.1
20260503201010 58 57 1.7 4.3 0.00 0.02 0.02 77 1015.1
20260503200012 58 59 2.6 4.3 0.00 0.02 0.02 77 1015.2
20260503195010 59 66 0.0 3.5 0.00 0.02 0.02 77 1015.2
20260503193012 59 72 2.6 4.3 0.00 0.02 0.02 77 1014.8
20260503192013 59 110 1.7 3.5 0.00 0.02 0.02 76 1014.9
20260503191012 59 137 0.9 2.6 0.00 0.02 0.02 77 1015.0
20260503190015 59 137 1.7 3.5 0.00 0.02 0.02 76 1014.8
20260503185015 59 137 1.7 2.6 0.00 0.02 0.02 76 1014.8
20260503184012 59 138 1.7 2.6 0.00 0.02 0.02 77 1014.9
20260503183012 58 138 1.7 5.2 0.00 0.02 0.02 77 1014.9
20260503182012 59 126 2.6 5.2 0.00 0.02 0.02 79 1014.8
20260503181014 59 134 3.5 8.7 0.00 0.02 0.02 81 1015.0
20260503180014 59 142 3.5 7.8 0.00 0.02 0.02 82 1014.9
20260503175011 59 141 5.2 8.7 0.00 0.02 0.02 82 1014.9
20260503174013 59 132 4.3 9.6 0.00 0.02 0.02 82 1014.8
20260503172014 60 137 3.5 7.8 0.00 0.02 0.02 81 1014.7
20260503171013 60 150 5.2 10.4 0.00 0.02 0.02 81 1014.9
20260503151009 62 147 6.1 13.0 0.00 0.02 0.02 77 1014.4
20260503131010 62 115 3.5 7.0 0.00 0.02 0.02 78 1015.8